Doha, Qatar

12:28 PM AST on February 24, 2017 (GMT +0300)
Doha International

Weather History for OTBD - May, 2012

Change the Weather History Date:

Monday, May 28, 2012

  Actual Average Record
Temperature  
Mean Temperature 98 °F -  
Max Temperature 107 °F 106 °F 117 °F (2014)
Min Temperature 90 °F 82 °F 78 °F (2001)
Cooling Degree Days 34    
Growing Degree Days 48 (Base 50)    
Moisture  
Dew Point 53 °F    
Average Humidity 22    
Maximum Humidity 32    
Minimum Humidity 11    
Precipitation  
Precipitation 0.00 in 0.00 in - ()
Sea Level Pressure  
Sea Level Pressure 29.72 in    
Wind  
Wind Speed 9 mph ()    
Max Wind Speed 20 mph    
Max Gust Speed -    
Visibility 7.0 miles    
Events      
Averages and records for this station are not official NWS values.
T = Trace of Precipitation, MM = Missing Value Source: Averaged Metar Reports

Daily Weather History Graph

Daily Weather History Graph

Search for Another Location

Airport or City:

Trip Planner

Search our weather history database for the weather conditions in past years. The results will help you decide how hot, cold, wet, or windy it might be!

Date:

Astronomy

May. 28, 2012 Rise Set
Actual Time 4:44 AM AST 6:18 PM AST
Civil Twilight 4:18 AM AST 6:43 PM AST
Nautical Twilight 3:48 AM AST 7:13 PM AST
Astronomical Twilight 3:16 AM AST 7:45 PM AST
Moon 11:02 AM AST (5/28) 11:44 PM AST (5/28)
Length of Visible Light 14h 24m
Length of Day
13h 34m
Waxing Crescent, 45% of the Moon is Illuminated
May 28
Waxing Crescent
May 28
First Quarter
Jun 4
Full
Jun 11
Last Quarter
Jun 19
New

Hourly Weather History & Observations

Time (AST) Temp. Heat Index Dew Point Humidity Pressure Visibility Wind Dir Wind Speed Gust Speed Precip Events Conditions
12:00 AM 93.2 °F 91.3 °F 55.4 °F 28% 29.71 in - NW 5.8 mph - N/A   Clear
12:30 AM 93.2 °F 91.3 °F 55.4 °F 28% 29.71 in - NW 5.8 mph - N/A   Clear
1:00 AM 93.2 °F 91.3 °F 55.4 °F 28% 29.71 in - NW 4.6 mph - N/A   Clear
1:30 AM 93.2 °F 91.3 °F 55.4 °F 28% 29.71 in - NW 4.6 mph - N/A   Clear
2:00 AM 93.2 °F 91.3 °F 55.4 °F 28% 29.71 in - NW 4.6 mph - N/A   Clear
2:30 AM 93.2 °F 91.3 °F 55.4 °F 28% 29.68 in - NW 4.6 mph - N/A   Clear
3:00 AM 92 °F - 53 °F 17% 29.71 in 7 mi WNW 4.6 mph - -   Clear
3:00 AM 93.2 °F 90.8 °F 53.6 °F 26% 29.68 in - WNW 4.6 mph - N/A   Clear
3:30 AM 93.2 °F - 50.0 °F 23% 29.71 in - NW 4.6 mph - N/A   Clear
4:00 AM 93.2 °F - 48.2 °F 21% 29.71 in - NNW 10.4 mph - N/A   Clear
4:30 AM 93.2 °F - 50.0 °F 23% 29.71 in - NNW 12.7 mph - N/A   Clear
5:00 AM 93.2 °F - 50.0 °F 23% 29.71 in - NNW 9.2 mph - N/A   Clear
5:30 AM 93.2 °F 90.8 °F 53.6 °F 26% 29.71 in - NW 6.9 mph - N/A   Clear
6:00 AM 93.2 °F 90.8 °F 53.6 °F 26% 29.74 in - WNW 8.1 mph - N/A   Clear
7:30 AM 93.2 °F 92.6 °F 59.0 °F 32% 29.77 in - NNW 12.7 mph - N/A   Clear
8:00 AM 95.0 °F 94.4 °F 59.0 °F 30% 29.77 in - NNW 11.5 mph - N/A   Clear
8:30 AM 96.8 °F 96.2 °F 59.0 °F 28% 29.77 in - NW 10.4 mph - N/A   Clear
9:00 AM 100 °F - 56 °F 15% 29.78 in 7 mi NW 8.1 mph - -   Scattered Clouds
9:00 AM 100.4 °F 98.8 °F 55.4 °F 22% 29.77 in - NW 8.1 mph - N/A   Clear
9:30 AM 102.2 °F 100.4 °F 53.6 °F 20% 29.77 in - NNW 12.7 mph - N/A   Clear
10:00 AM 104.0 °F 102.9 °F 55.4 °F 20% 29.77 in - NNW 13.8 mph - N/A   Clear
10:30 AM 105.8 °F - 51.8 °F 17% 29.74 in - NNW 16.1 mph - N/A   Clear
11:00 AM 105.8 °F - 50.0 °F 15% 29.74 in - NNW 16.1 mph - N/A   Clear
11:30 AM 107.6 °F - 48.2 °F 14% 29.74 in - NNW 15.0 mph - N/A   Clear
12:00 PM 107.6 °F - 46.4 °F 13% 29.74 in - North 15.0 mph - N/A   Clear
12:30 PM 107.6 °F - 42.8 °F 11% 29.71 in - North 16.1 mph - N/A   Clear
1:00 PM 107.6 °F - 42.8 °F 11% 29.71 in - North 16.1 mph - N/A   Clear
1:30 PM 107.6 °F - 46.4 °F 13% 29.71 in - North 17.3 mph - N/A   Clear
2:00 PM 104.0 °F 102.3 °F 53.6 °F 19% 29.71 in - North 18.4 mph - N/A   Clear
2:30 PM 104.0 °F 102.3 °F 53.6 °F 19% 29.71 in - North 19.6 mph - N/A   Clear
3:00 PM 103 °F - 54 °F 12% 29.71 in 7 mi North 19.6 mph - -   Clear
3:00 PM 104.0 °F 102.3 °F 53.6 °F 19% 29.68 in - North 19.6 mph - N/A   Clear
3:30 PM 104.0 °F 104.6 °F 59.0 °F 23% 29.68 in - North 17.3 mph - N/A   Clear
4:00 PM 104.0 °F - 46.4 °F 14% 29.68 in - NNW 16.1 mph - N/A   Clear
4:30 PM 102.2 °F - 48.2 °F 16% 29.71 in - NNW 16.1 mph - N/A   Clear
5:00 PM 100.4 °F - 51.8 °F 20% 29.71 in - NNW 15.0 mph - N/A   Clear
5:30 PM 98.6 °F - 51.8 °F 21% 29.71 in - NW 13.8 mph - N/A   Clear
6:00 PM 98.6 °F - 51.8 °F 21% 29.71 in - NW 10.4 mph - N/A   Clear
6:30 PM 96.8 °F 94.4 °F 53.6 °F 23% 29.71 in - NW 11.5 mph - N/A   Clear
7:00 PM 95.0 °F 92.7 °F 53.6 °F 25% 29.71 in - NNW 13.8 mph - N/A   Clear
7:30 PM 95.0 °F 92.7 °F 53.6 °F 25% 29.74 in - NNW 10.4 mph - N/A   Clear
8:00 PM 93.2 °F 90.8 °F 53.6 °F 26% 29.74 in - NNW 12.7 mph - N/A   Clear
8:30 PM 93.2 °F 90.8 °F 53.6 °F 26% 29.71 in - NW 11.5 mph - N/A   Clear
9:00 PM 93 °F - 54 °F 18% 29.73 in 7 mi NNW 12.7 mph - -   Clear
9:00 PM 93.2 °F 90.8 °F 53.6 °F 26% 29.71 in - NNW 12.7 mph - N/A   Clear
9:30 PM 93.2 °F 90.8 °F 53.6 °F 26% 29.71 in - NW 12.7 mph - N/A   Clear
10:00 PM 93.2 °F 90.8 °F 53.6 °F 26% 29.71 in - NW 13.8 mph - N/A   Clear
10:30 PM 91.4 °F 89.4 °F 55.4 °F 29% 29.74 in - North 6.9 mph - N/A   Clear
11:00 PM 91.4 °F 89.1 °F 53.6 °F 28% 29.74 in - NNW 9.2 mph - N/A   Clear
11:30 PM 91.4 °F 89.1 °F 53.6 °F 28% 29.71 in - NNW 10.4 mph - N/A   Clear